Погода в Янги Чиназе

Узбекистан     40°54′39″N   68°42′38″E
темп.,
°C
ветер,
м/с
пор.,
м/с
влажн.,
%
обл.,
%
осадки,
мм/ч
давл.,
гПа
погр.,
м
4 декабря, сб
сб423:00+12ссв2244100 0.0 102122
02:00+11зюз2242100 0.0 102116
05:00+10ююв1251100 0.0 102110
08:00+9ююз115998 0.0 102210
11:00+13юз224391 0.0 1021301
14:00+15з223299 0.0 1019627
17:00+13сз3344100 0.0 101940
20:00+11сз2252100 0.0 102011
5 декабря, вс
вс523:00+10зюз2358100 0.0 102034
02:00+8зюз236337 0.0 102146
05:00+7зюз2278100 0.0 102229
08:00+6ссв1180100 0.0 102314
11:00+10ссз2255100 0.0 1024416
14:00+12ссз334096 0.0 1022784
17:00+10с114648 0.0 102210
20:00+8с22546 0.0 102325
6 декабря, пн
пн623:00+7ссв225968 0.0 102317
02:00+6всв116514 0.0 102210
05:00+6всв11734 0.0 102210
08:00+5всв11780 0.0 102310
11:00+11ююв11560 0.0 1023305
14:00+14с10410 0.0 1021583
17:00+11с22485 0.0 102114
20:00+9ссв335910 0.0 102221
7 декабря, вт
вт723:00+8св2260100 0.0 102217
02:00+7ссв2263100 0.0 102313
05:00+7св2261100 0.0 102311
08:00+7сз1161100 0.0 102410
11:00+11с1145100 0.0 1025214
14:00+14ссз1136100 0.0 1024454
17:00+12сз2240100 0.0 102511
20:00+11сз1145100 0.0 102612
8 декабря, ср
ср823:00+10ссз2250100 0.0 102617
02:00+9ссз1152100 0.0 102612
05:00+8сз2255100 0.0 102714
08:00+7сз1157100 0.0 102810
11:00+11сз1144100 0.0 1029268
14:00+13зсз113721 0.0 1028642
17:00+11ссз22435 0.0 102910
20:00+9всв11500 0.0 102910